TimeEST,TemperatureF,Dew PointF,Humidity,Sea Level PressureIn,VisibilityMPH,Wind Direction,Wind SpeedMPH,Gust SpeedMPH,PrecipitationIn,Events,Conditions,WindDirDegrees,DateUTC
12:51 AM,39.0,9.0,29,30.27,10.0,SSW,6.9,-,N/A,,Clear,210,2013-11-15 05:51:00
1:51 AM,39.9,8.1,27,30.26,10.0,SW,5.8,-,N/A,,Clear,220,2013-11-15 06:51:00
2:51 AM,36.0,10.0,34,30.27,10.0,SSW,4.6,-,N/A,,Clear,200,2013-11-15 07:51:00
3:51 AM,35.1,10.9,37,30.26,10.0,Calm,Calm,-,N/A,,Clear,0,2013-11-15 08:51:00
4:51 AM,33.1,12.0,42,30.27,10.0,Calm,Calm,-,N/A,,Clear,0,2013-11-15 09:51:00
5:51 AM,34.0,12.0,40,30.29,10.0,Calm,Calm,-,N/A,,Clear,0,2013-11-15 10:51:00
6:51 AM,35.1,14.0,42,30.30,10.0,Calm,Calm,-,N/A,,Clear,0,2013-11-15 11:51:00
7:51 AM,36.0,18.0,48,30.33,10.0,Calm,Calm,-,N/A,,Clear,0,2013-11-15 12:51:00
8:51 AM,46.9,16.0,29,30.30,10.0,SW,5.8,-,N/A,,Clear,220,2013-11-15 13:51:00
9:51 AM,48.9,17.1,28,30.29,10.0,SW,6.9,-,N/A,,Clear,230,2013-11-15 14:51:00
10:51 AM,52.0,16.0,24,30.28,10.0,SW,8.1,-,N/A,,Clear,220,2013-11-15 15:51:00
11:51 AM,54.0,21.9,29,30.26,10.0,Variable,5.8,17.3,N/A,,Clear,0,2013-11-15 16:51:00
12:51 PM,55.9,27.0,33,30.23,10.0,West,11.5,20.7,N/A,,Clear,260,2013-11-15 17:51:00
1:51 PM,55.9,30.0,37,30.19,10.0,SW,6.9,-,N/A,,Clear,220,2013-11-15 18:51:00
2:51 PM,54.0,32.0,43,30.20,10.0,West,8.1,-,N/A,,Overcast,280,2013-11-15 19:51:00
3:51 PM,53.1,33.1,47,30.21,10.0,West,6.9,-,N/A,,Overcast,270,2013-11-15 20:51:00
4:51 PM,51.1,33.1,50,30.22,10.0,Calm,Calm,-,N/A,,Overcast,0,2013-11-15 21:51:00
5:51 PM,51.1,34.0,52,30.21,10.0,SSW,3.5,-,N/A,,Overcast,200,2013-11-15 22:51:00
6:51 PM,50.0,37.9,63,30.22,10.0,South,5.8,-,0.00,Rain,Light Rain,180,2013-11-15 23:51:00
7:51 PM,46.9,41.0,80,30.22,10.0,Calm,Calm,-,0.02,Rain,Light Rain,0,2013-11-16 00:51:00
8:51 PM,46.9,43.0,86,30.21,7.0,Calm,Calm,-,0.03,Rain,Light Rain,0,2013-11-16 01:51:00
9:51 PM,46.0,43.0,89,30.22,4.0,Calm,Calm,-,0.07,Rain,Rain,0,2013-11-16 02:51:00
10:51 PM,46.0,43.0,89,30.21,10.0,Calm,Calm,-,0.04,,Overcast,0,2013-11-16 03:51:00
11:34 PM,46.4,42.8,87,30.21,10.0,SE,3.5,-,N/A,,Overcast,140,2013-11-16 04:34:00
11:51 PM,46.0,43.0,89,30.21,7.0,SE,3.5,-,0.00,Rain,Light Rain,130,2013-11-16 04:51:00